Location: Platte
(43.3870°N, 98.8440°W)
Time: 03:45:03
(UTC-05:00)

Landsat 7 - Visible Passes

Search period start: 28 August 2016 00:00
Search period end: 07 September 2016 00:00
Orbit: 702 x 703 km, 98.2° (Epoch: 27 August)

Date Brightness Start Highest point End Pass type
(mag) Time Alt. Az. Time Alt. Az. Time Alt. Az.
28 Aug 4.7 22:39:00 36° ENE 22:39:00 36° ENE 22:42:57 10° N visible
29 Aug 5.9 00:17:53 21° WNW 00:17:53 21° WNW 00:20:20 10° NW visible
29 Aug 5.9 21:43:29 12° ENE 21:44:11 12° ENE 21:46:03 10° NE visible
29 Aug 4.5 23:22:23 52° NNW 23:22:23 52° NNW 23:26:00 10° NNW visible
30 Aug 5.0 22:26:52 28° ENE 22:26:52 28° ENE 22:30:31 10° N visible
31 Aug 5.7 00:05:46 26° WNW 00:05:46 26° WNW 00:08:24 10° NNW visible
31 Aug 4.5 23:10:15 48° N 23:10:15 48° N 23:13:46 10° N visible
01 Sep 6.7 00:49:08 10° WNW 00:49:08 10° WNW 00:49:20 10° WNW visible
01 Sep 5.3 22:14:44 22° ENE 22:14:44 22° ENE 22:18:02 10° NNE visible
01 Sep 5.5 23:53:38 30° NW 23:53:38 30° NW 23:56:22 10° NNW visible
02 Sep 4.7 22:58:07 41° NNE 22:58:07 41° NNE 23:01:29 10° N visible
03 Sep 6.5 00:37:00 13° WNW 00:37:00 13° WNW 00:37:58 10° NW visible
03 Sep 5.6 22:02:36 18° ENE 22:02:36 18° ENE 22:05:25 10° NNE visible
03 Sep 5.4 23:41:30 33° NW 23:41:30 33° NW 23:44:17 10° NNW visible
04 Sep 4.9 22:45:59 34° NNE 22:45:59 34° NNE 22:49:09 10° N visible
05 Sep 6.4 00:24:52 16° WNW 00:24:52 16° WNW 00:26:16 10° NW visible
05 Sep 5.8 21:50:29 14° ENE 21:50:29 14° ENE 21:52:36 10° NNE visible
05 Sep 5.3 23:29:22 35° NNW 23:29:22 35° NNW 23:32:07 10° NNW visible
06 Sep 5.2 22:33:52 27° NE 22:33:52 27° NE 22:36:46 10° N visible
